Content
SEND FEEDBACK

Daily
Averages
Monthly
Summary
Canada

VANCOUVER, BRITISH COLUMBIA


Home > North America > Canada > British Columbia
Elevation: 7 feet     Latitude: 49 11N     Longitude: 123 10W

WEATHER
 
SELECT A DAY
Number of Records: 253,051;   Date Range: 5/15/97 - 10/22/14
 
SHARE

PRINT THIS DATA

[ ← Previous Day ]
WEATHER ALMANAC - APRIL 21, 2013
[ Next Day → ]
[ °C ]   °F
Weather ElementAverageHighLow
Temperature45.5 °F48.2 °F (11:55 am)39.2 °F (11:35 pm)
Dewpoint39.6 °F41 °F (2:55 am)35.6 °F (6:15 pm)
Humidity79.9 %93 % (9:15 pm)62 % (6:15 pm)
Barometer30.26 in30.38 in (11:15 pm)30.21 in (2:55 am)
Wind Speed3.5 mph11.5 mph (1:55 pm)
Wind Gust19.6 mph (12:55 pm)
Weather ElementAverage
Visibility9.3 mi
Wind DirectionESE (102.7 °)

Weather ElementTotal
Precipitation---
Heating Degree Days21.3 (Base 65)
Averaged from 60 records on April 21, 2013
WEATHER CONDITIONS BREAKOUT
WIND DIRECTION BREAKOUT
WEATHER BY HOUR - APRIL 21, 2013
[ °C ]   °F
Local TimeTemperatureDewpointHumidityBarometerVisibilityWind DirectionWind SpeedGust SpeedPrecipitationEventsConditions
2:55 AM46.4 °F41.0 °F81 %30.21 in10.0 miSSW (200°)4.6 mphMostly Cloudy
3:15 AM46.4 °F41.0 °F81 %30.21 in10.0 miSouth (190°)5.8 mphOvercast
3:35 AM46.4 °F41.0 °F81 %30.21 in10.0 miCalmOvercast
3:55 AM46.4 °F41.0 °F81 %30.21 in10.0 miSSW (200°)5.8 mphOvercast
4:15 AM46.4 °F41.0 °F81 %30.21 in10.0 miSouth (190°)5.8 mphOvercast
4:35 AM46.4 °F41.0 °F81 %30.21 in7.0 miSSW (200°)6.9 mphRainLight Rain
4:55 AM44.6 °F41.0 °F87 %30.21 in4.0 miSSW (200°)6.9 mphRainLight Rain
5:15 AM44.6 °F41.0 °F87 %30.21 in8.0 miSSW (210°)6.9 mphRainLight Rain
5:35 AM44.6 °F41.0 °F87 %30.21 in10.0 miSouth (190°)6.9 mphRainLight Rain
5:55 AM44.6 °F41.0 °F87 %30.21 in7.0 miSouth (190°)4.6 mphRainLight Rain
6:15 AM44.6 °F41.0 °F87 %30.21 in7.0 miSSW (200°)5.8 mphRainLight Rain
6:35 AM44.6 °F41.0 °F87 %30.21 in8.0 miSSW (200°)4.6 mphOvercast
6:55 AM44.6 °F41.0 °F87 %30.21 in10.0 miCalmOvercast
7:15 AM44.6 °F41.0 °F87 %30.21 in10.0 miCalmOvercast
7:35 AM44.6 °F39.2 °F81 %30.21 in3.0 miCalmRainLight Rain
7:55 AM44.6 °F41.0 °F87 %30.21 in4.0 miNorthRainLight Rain
8:15 AM44.6 °F41.0 °F87 %30.22 in10.0 miCalmMostly Cloudy
8:35 AM44.6 °F41.0 °F87 %30.21 in10.0 miCalmOvercast
8:55 AM44.6 °F41.0 °F87 %30.22 in10.0 miCalmOvercast
9:15 AM44.6 °F41.0 °F87 %30.21 in10.0 miCalmOvercast
9:35 AM46.4 °F41.0 °F81 %30.21 in10.0 miCalmOvercast
9:55 AM46.4 °F39.2 °F76 %30.22 in10.0 miCalmOvercast
10:15 AM44.6 °F41.0 °F87 %30.22 in5.0 miCalmRainLight Rain
10:35 AM46.4 °F41.0 °F81 %30.22 in8.0 miCalmRainLight Rain
10:55 AM46.4 °F41.0 °F81 %30.22 in10.0 miCalmOvercast
11:15 AM46.4 °F39.2 °F76 %30.22 in10.0 miCalmMostly Cloudy
11:35 AM46.4 °F41.0 °F81 %30.23 in8.0 miCalmRainLight Rain
11:55 AM48.2 °F39.2 °F71 %30.23 in10.0 miCalmScattered Clouds
12:15 PM46.4 °F41.0 °F81 %30.24 in10.0 miENE (60°)6.9 mphOvercast
12:35 PM44.6 °F39.2 °F81 %30.25 in10.0 miENE (60°)9.2 mph16.1 mphMostly Cloudy
12:55 PM46.4 °F39.2 °F76 %30.25 in10.0 miENE (60°)8.1 mph19.6 mphScattered Clouds
1:15 PM46.4 °F39.2 °F76 %30.26 in10.0 miENE (70°)6.9 mph16.1 mphScattered Clouds
1:35 PM46.4 °F39.2 °F76 %30.26 in10.0 miNNE (20°)6.9 mphScattered Clouds
1:55 PM46.4 °F39.2 °F76 %30.27 in10.0 miNE (40°)11.5 mph18.4 mphMostly Cloudy
2:15 PM46.4 °F39.2 °F76 %30.27 in10.0 miNE (40°)9.2 mphMostly Cloudy
2:35 PM46.4 °F37.4 °F71 %30.28 in10.0 miNNE (30°)6.9 mphMostly Cloudy
2:55 PM48.2 °F39.2 °F71 %30.28 in10.0 miNorth (10°)8.1 mphMostly Cloudy
3:15 PM46.4 °F39.2 °F76 %30.28 in10.0 miNorth (360°)8.1 mphClear
3:35 PM48.2 °F39.2 °F71 %30.28 in10.0 miNorth (350°)6.9 mphScattered Clouds
3:55 PM46.4 °F37.4 °F71 %30.28 in10.0 miCalmScattered Clouds
4:15 PM48.2 °F37.4 °F66 %30.28 in10.0 miNorth (350°)10.4 mphPartly Cloudy
4:55 PM48.2 °F37.4 °F66 %30.28 in10.0 miNNW (330°)6.9 mphClear
5:15 PM48.2 °F39.2 °F71 %30.28 in10.0 miNW (310°)5.8 mphPartly Cloudy
5:35 PM48.2 °F39.2 °F71 %30.28 in10.0 miNNW (330°)6.9 mphMostly Cloudy
5:55 PM48.2 °F37.4 °F66 %30.28 in10.0 miNNW (340°)6.9 mphOvercast
6:15 PM48.2 °F35.6 °F62 %30.28 in10.0 miNNW (330°)3.5 mphPartly Cloudy
6:35 PM48.2 °F37.4 °F66 %30.28 in10.0 miNW (320°)5.8 mphClear
7:15 PM48.2 °F37.4 °F66 %30.29 in10.0 miWNW (300°)3.5 mphClear
7:35 PM48.2 °F37.4 °F66 %30.29 in10.0 miWest (280°)3.5 mphClear
7:55 PM46.4 °F39.2 °F76 %30.30 in10.0 miCalmClear
8:15 PM46.4 °F39.2 °F76 %30.31 in10.0 miCalmClear
8:35 PM44.6 °F39.2 °F81 %30.31 in10.0 miCalmClear
9:15 PM41.0 °F39.2 °F93 %30.34 in10.0 miCalmClear
9:35 PM42.8 °F39.2 °F87 %30.34 in10.0 miCalmClear
9:55 PM42.8 °F39.2 °F87 %30.35 in10.0 miCalmClear
10:15 PM41.0 °F39.2 °F93 %30.35 in10.0 miCalmClear
10:55 PM41.0 °F39.2 °F93 %30.37 in10.0 miCalmClear
11:15 PM41.0 °F37.4 °F87 %30.38 in10.0 miCalmClear
11:35 PM39.2 °F37.4 °F93 %30.38 in10.0 miCalmClear
11:55 PM39.2 °F37.4 °F93 %30.38 in10.0 miCalmClear
Hourly data recorded from CZBB, located miles away from Vancouver, British Columbia







STORIES FROM OUR PARTNERS